Content
SEND FEEDBACK

Daily
Averages
Monthly
Summary
United States of America

ROHNERVILLE, CALIFORNIA


Home > North America > United States > California
Elevation: 390 feet     Latitude: 40 33N     Longitude: 124 07W

WEATHER
 
SELECT A DAY
Number of Records: 57,331;   Date Range: 9/21/11 - 7/11/14
 
SHARE

PRINT THIS DATA

[ ← Previous Day ]
WEATHER ALMANAC - APRIL 21, 2013
[ Next Day → ]
[ °C ]   °F
Weather ElementAverageHighLow
Temperature50.6 °F60.8 °F (4:15 pm)44.6 °F (5:15 am)
Dewpoint48.3 °F53.6 °F (11:55 am)44.6 °F (5:15 am)
Humidity92.7 %100 % (12:35 am)63 % (4:15 pm)
Barometer30.21 in30.25 in (12:35 am)30.18 in (3:35 pm)
Wind Speed10.5 mph21.9 mph (5:15 pm)
Wind Gust32.2 mph (5:15 pm)
Weather ElementAverage
Visibility8 mi
Wind DirectionWNW (296.3 °)

Weather ElementTotal
Precipitation---
Heating Degree Days12.3 (Base 65)
Growing Degree Days2.7 (Base 50)
Averaged from 70 records on April 21, 2013
WEATHER CONDITIONS BREAKOUT
WIND DIRECTION BREAKOUT
WEATHER BY HOUR - APRIL 21, 2013
[ °C ]   °F
Local TimeTemperatureDewpointHumidityBarometerVisibilityWind DirectionWind SpeedGust SpeedPrecipitationEventsConditions
12:35 AM46.4 °F46.4 °F100 %30.25 in10.0 miNNW (330°)9.2 mphOvercast
12:55 AM46.4 °F46.4 °F100 %30.25 in10.0 miNNW (330°)6.9 mphOvercast
1:15 AM46.4 °F46.4 °F100 %30.25 in10.0 miNNW (330°)6.9 mphOvercast
1:35 AM46.4 °F46.4 °F100 %30.24 in10.0 miNNW (340°)6.9 mphOvercast
1:55 AM46.4 °F46.4 °F100 %30.23 in10.0 miNW (320°)5.8 mphOvercast
2:15 AM46.4 °F46.4 °F100 %30.23 in10.0 miNorth (350°)4.6 mphOvercast
2:35 AM46.4 °F46.4 °F100 %30.22 in10.0 miNW (320°)4.6 mphOvercast
2:55 AM46.4 °F46.4 °F100 %30.21 in10.0 miNW (310°)5.8 mphOvercast
3:15 AM46.4 °F46.4 °F100 %30.21 in10.0 miWNW (300°)5.8 mphOvercast
3:35 AM46.4 °F46.4 °F100 %30.21 in10.0 miNW (310°)8.1 mphOvercast
3:55 AM46.4 °F46.4 °F100 %30.21 in8.0 miWNW (290°)6.9 mphOvercast
4:15 AM46.4 °F46.4 °F100 %30.20 in4.0 miWNW (300°)5.8 mphOvercast
4:35 AM46.4 °F46.4 °F100 %30.20 in4.0 miWest (280°)4.6 mphOvercast
4:55 AM46.4 °F46.4 °F100 %30.20 in3.0 miWest (280°)3.5 mphOvercast
5:15 AM44.6 °F44.6 °F100 %30.20 in2.0 miWNW (300°)3.5 mphOvercast
5:35 AM46.4 °F46.4 °F100 %30.20 in1.2 miWest (280°)5.8 mphOvercast
5:55 AM44.6 °F44.6 °F100 %30.20 in0.8 miWest (280°)4.6 mphOvercast
6:15 AM44.6 °F44.6 °F100 %30.20 in0.2 miWNW (290°)4.6 mphOvercast
6:35 AM44.6 °F44.6 °F100 %30.20 in0.5 miCalmOvercast
6:55 AM46.4 °F46.4 °F100 %30.21 in0.5 miWNW (300°)6.9 mphOvercast
7:15 AM46.4 °F46.4 °F100 %30.21 in0.2 miWNW (300°)6.9 mphOvercast
7:35 AM46.4 °F46.4 °F100 %30.21 in0.2 miNW (310°)6.9 mphOvercast
7:55 AM46.4 °F46.4 °F100 %30.22 in0.2 miNW (310°)6.9 mphOvercast
8:15 AM46.4 °F46.4 °F100 %30.22 in0.2 miWNW (290°)3.5 mphOvercast
8:35 AM46.4 °F46.4 °F100 %30.22 in1.2 miWest (270°)5.8 mphOvercast
8:55 AM46.4 °F46.4 °F100 %30.21 in3.0 miWest (260°)3.5 mphOvercast
9:15 AM46.4 °F46.4 °F100 %30.22 in5.0 miCalmOvercast
9:35 AM46.4 °F46.4 °F100 %30.22 in10.0 miNW (310°)3.5 mphOvercast
9:55 AM48.2 °F48.2 °F100 %30.22 in10.0 miWest (280°)3.5 mphOvercast
10:15 AM48.2 °F48.2 °F100 %30.22 in10.0 miWest (280°)6.9 mphOvercast
10:35 AM50.0 °F50.0 °F100 %30.21 in10.0 miWNW (290°)4.6 mphOvercast
10:55 AM50.0 °F50.0 °F100 %30.21 in10.0 miWNW (290°)8.1 mphOvercast
11:15 AM50.0 °F50.0 °F100 %30.22 in10.0 miWest (280°)10.4 mphMostly Cloudy
11:35 AM51.8 °F51.8 °F100 %30.22 in10.0 miWNW (290°)12.7 mphMostly Cloudy
11:55 AM53.6 °F53.6 °F100 %30.22 in10.0 miWNW (300°)15.0 mph19.6 mphScattered Clouds
12:15 PM53.6 °F53.6 °F100 %30.22 in10.0 miNW (310°)15.0 mph19.6 mphScattered Clouds
12:35 PM53.6 °F53.6 °F100 %30.22 in10.0 miWNW (300°)17.3 mph21.9 mphClear
12:55 PM53.6 °F51.8 °F94 %30.21 in10.0 miWNW (300°)16.1 mph19.6 mphClear
1:15 PM53.6 °F50.0 °F88 %30.21 in10.0 miWNW (290°)17.3 mph23.0 mphClear
1:35 PM53.6 °F51.8 °F94 %30.20 in10.0 miWNW (300°)17.3 mphClear
1:55 PM53.6 °F50.0 °F88 %30.20 in10.0 miWNW (290°)18.4 mphClear
2:15 PM55.4 °F50.0 °F82 %30.20 in10.0 miWest (280°)16.1 mph25.3 mphClear
2:35 PM55.4 °F50.0 °F82 %30.20 in10.0 miWNW (290°)19.6 mphClear
2:55 PM57.2 °F50.0 °F77 %30.19 in10.0 miWNW (300°)16.1 mph23.0 mphClear
3:35 PM59.0 °F48.2 °F67 %30.18 in10.0 miNW (310°)17.3 mphClear
3:55 PM59.0 °F48.2 °F67 %30.18 in10.0 miNW (320°)17.3 mph24.2 mphClear
4:15 PM60.8 °F48.2 °F63 %30.18 in10.0 miNW (320°)16.1 mph25.3 mphClear
4:35 PM60.8 °F48.2 °F63 %30.18 in9.0 miNW (310°)17.3 mph29.9 mphClear
4:55 PM59.0 °F48.2 °F67 %30.18 in10.0 miNW (320°)20.7 mph27.6 mphClear
5:15 PM60.8 °F48.2 °F63 %30.18 in10.0 miNW (320°)21.9 mph32.2 mphClear
5:35 PM59.0 °F48.2 °F67 %30.19 in10.0 miNNW (330°)20.7 mph29.9 mphClear
5:55 PM59.0 °F48.2 °F67 %30.19 in10.0 miNNW (330°)18.4 mph26.5 mphClear
6:15 PM57.2 °F48.2 °F72 %30.19 in10.0 miNNW (340°)18.4 mph31.1 mphClear
6:35 PM57.2 °F48.2 °F72 %30.19 in10.0 miNW (320°)21.9 mph32.2 mphClear
6:55 PM55.4 °F48.2 °F77 %30.19 in10.0 miNW (320°)18.4 mph26.5 mphClear
7:15 PM55.4 °F48.2 °F77 %30.19 in10.0 miNW (320°)17.3 mph27.6 mphClear
7:35 PM53.6 °F48.2 °F82 %30.19 in10.0 miNNW (330°)19.6 mph28.8 mphClear
7:55 PM53.6 °F50.0 °F88 %30.19 in10.0 miNW (320°)18.4 mph24.2 mphClear
8:15 PM51.8 °F50.0 °F94 %30.19 in10.0 miNW (320°)12.7 mph21.9 mphClear
8:35 PM50.0 °F50.0 °F100 %30.20 in10.0 miNW (310°)12.7 mphClear
8:55 PM50.0 °F50.0 °F100 %30.20 in10.0 miNW (320°)10.4 mphPartly Cloudy
9:15 PM50.0 °F50.0 °F100 %30.20 in10.0 miNW (310°)9.2 mph19.6 mphMostly Cloudy
9:35 PM50.0 °F50.0 °F100 %30.20 in10.0 miWNW (290°)9.2 mphOvercast
9:55 PM50.0 °F50.0 °F100 %30.21 in10.0 miWNW (300°)9.2 mphOvercast
10:15 PM50.0 °F50.0 °F100 %30.20 in10.0 miWNW (300°)10.4 mphOvercast
10:35 PM50.0 °F50.0 °F100 %30.20 in10.0 miWNW (300°)10.4 mphMostly Cloudy
10:55 PM50.0 °F50.0 °F100 %30.20 in10.0 miWNW (300°)6.9 mphOvercast
11:15 PM50.0 °F50.0 °F100 %30.20 in10.0 miWNW (300°)6.9 mphOvercast
11:35 PM50.0 °F50.0 °F100 %30.19 in10.0 miWNW (300°)5.8 mphOvercast
11:55 PM50.0 °F50.0 °F100 %30.19 in10.0 miNW (320°)6.9 mphOvercast
Hourly data recorded from KFOT, located miles away from Rohnerville, California







STORIES FROM OUR PARTNERS